Regional Weather Roundup
Issued by NWS

Current Version | Previous Version | Text Only | Print | Product List | Glossary On
Versions: 1 2 3 4 5 6 7 8 9 10 11 12 13 14 15 16 17 18 19 20 21 22 23 24 25 26 27 28 29 30 31 32 33 34 35 36 37 38 39 40 41 42 43 44 45 46 47 48 49 50
000
ASUS44 KLIX 301910
RWRLA
LOUISIANA WEATHER ROUNDUP
NATIONAL WEATHER SERVICE NEW ORLEANS LA
200 PM CDT WED JUL 30 2014

NOTE: "FAIR" INDICATES FEW OR NO CLOUDS BELOW 12,000 FEET WITH NO
      SIGNIFICANT WEATHER AND/OR OBSTRUCTIONS TO VISIBILITY.
      SKY/WX - SKY CONDITION AND SIGNIFICANT WEATHER.
      TMP - AIR TEMPERATURE.    DP   - DEWPOINT TEMPERATURE.
      RH  - RELATIVE HUMIDITY.  PRES - PRESSURE.
      HX  - HEAT INDEX.         WCI  - WIND CHILL INDEX.

*  THESE STATIONS ARE NOT NWS OR FAA STATIONS AND ARE NOT UNDER
   NWS QUALITY CONTROL.

LAZ040-048-061>063-065-066-069-302000-
SOUTHEAST LOUISIANA

CITY           SKY/WX    TMP DP  RH WIND       PRES   REMARKS
N.O. AUDUBON     N/A     89  64  43 MISG        N/A
N.O. INTL ARPT MOSUNNY   85  61  44 VRB7      30.04F
N.O. LAKEFRONT SUNNY     83  62  49 NW5       30.05F
N.O. DOWNTOWN* FAIR      86  57  37 N6        30.05S
SLIDELL        SUNNY     86  58  38 NW8       30.03F
BATON ROUGE    SUNNY     86  60  41 VRB5      30.05F
BOOTHVILLE     SUNNY     83  69  62 VRB7      30.04F
BELLE CHASSE   PTSUNNY   86  61  42 VRB6      30.03F
BOGALUSA*        N/A     84  57  39 N3        30.06F
GALLIANO*      NOT AVBL
NEW ROADS*     FAIR      83  60  44 W3        30.05F
GONZALES*      FAIR      84  63  47 CALM      30.03F
HAMMOND*       SUNNY     86  57  37 W3        30.06F
HOUMA*         MOSUNNY   90  64  43 NW6       30.03F
PORT FOURCHON* MOCLDY    84  70  61 CALM      30.05F

$$

LAZ041-044-053-054-302000-
SOUTHWEST LOUISIANA

CITY           SKY/WX    TMP DP  RH WIND       PRES   REMARKS
LAKE CHARLES   MOSUNNY   87  66  49 VRB3      30.04F
LAFAYETTE      SUNNY     89  66  46 MISG      30.04F
PATTERSON        N/A     88  70  55 N8        30.08F
SALT POINT       N/A     88  71  57 W5        30.03F
NEW IBERIA     SUNNY     88  65  46 NW5       30.04F
CHENAULT AIRPK SUNNY     86  64  48 N6        30.06F

$$

LAZ027-028-302000-
CENTRAL LOUISIANA

CITY           SKY/WX    TMP DP  RH WIND       PRES   REMARKS
FORT POLK      SUNNY     87  62  43 CALM      30.05F
ALEXANDRIA INT SUNNY     88  57  34 CALM      30.04F
ALEXANDRIA     SUNNY     87  59  38 E7        30.06F

$$

LAZ001-002-302000-
NORTHWEST LOUISIANA

CITY           SKY/WX    TMP DP  RH WIND       PRES   REMARKS
SHREVEPORT     PTSUNNY   88  59  37 SE5       30.07F
BARKSDALE AFB  MOSUNNY   85  61  44 SE5       30.07F
DTN SHREVEPORT PTSUNNY   85  59  41 SE7       30.07F

$$

LAZ014-016-302000-
NORTHEAST LOUISIANA

CITY           SKY/WX    TMP DP  RH WIND       PRES   REMARKS
MONROE         SUNNY     84  59  42 E5        30.08F
TALLULAH       SUNNY     84  59  42 MISG      30.08F

$$



USA.gov is the U.S. government's official web portal to all federal, state and local government web resources and services.